Location: Mariposa
(37.4849°N, 119.9663°W)
Time: 03:28:49
(UTC+00:00)

Cosmos 1818 - Pass Details

Date: 03 August 2024
Orbit: 770 x 801 km, 65.0° (Epoch: 12 September)

Event Time Altitude Azimuth Distance (km) Brightness Sun altitude
Exits shadow 12:01:55 - 194° (SSW) 2,628 5.8 -12.1°
Reaches altitude 10° 12:02:41 10° 192° (SSW) 2,342 5.6 -12.0°
Maximum altitude 12:07:56 55° 115° (ESE) 948 4.2 -11.1°
Drops below altitude 10° 12:13:15 10° 39° (NE) 2,374 7.3 -10.2°
Sets 12:15:44 0° 35° (NE) 3,311 8.2 -9.8°
